Regional Weather Roundup
Issued by NWS Grand Forks, ND

Home | Current Version | Previous Version | Graphics & Text | Print | Product List | Glossary On
Versions: 1 2 3 4 5 6 7 8 9 10 11 12 13 14 15 16 17 18 19 20 21 22 23 24 25 26 27 28 29 30 31 32 33 34 35 36 37 38 39 40 41 42 43 44 45 46 47 48 49 50
000
ASUS43 KFGF 260531
RWRFGF
PRAIRIE TO PINES  WEATHER ROUNDUP
NATIONAL WEATHER SERVICE EASTERN NORTH DAKOTA/GRAND FORKS ND
1200 AM CDT THU APR 26 2018

 **SATELLITE DATA USED TO AUGMENT SKY COVER AT AUTOMATED STATIONS**
 *****  WEATHER ACROSS EASTERN NORTH DAKOTA  *****

CITY           SKY/WX    TMP DP  RH WIND       PRES   REMARKS
GRAND FORKS    MOCLDY    52  36  54 NW22G29   29.77R
GRAND FRKS AFB FAIR      53  34  49 N23G32    29.78R
GRAND FRKS NWS   N/A     48  36  62 N3        29.75R
DEVILS LAKE    FAIR      47  32  56 N18G25    29.85R
FARGO          FAIR      51  36  56 S18       29.78F
WAHPETON ARPT  FAIR      45  34  65 S14       29.82F
$$

 ***** WEATHER ACROSS CENTRAL AND WESTERN NORTH DAKOTA  *****

CITY           SKY/WX    TMP DP  RH WIND       PRES   REMARKS
BISMARCK       FAIR      56  35  45 NW20G30   29.85R
MINOT          FAIR      50  33  52 N13       29.95R
JAMESTOWN      FAIR      51  32  48 SW12      29.76S
MINOT AFB      FAIR      49  32  51 N12       29.94R
GARRISON         N/A     49  35  58 N15G22    29.92R
WILLISTON      FAIR      50  31  48 N13       30.03R
DICKINSON      FAIR      50  32  50 N10       29.96R
HETTINGER      FAIR      52  31  44 N17G29    29.95R
$$

 *****  OTHER AIRPORT OBSERVATIONS IN OUR AREA  *****

CITY           SKY/WX    TMP DP  RH WIND       PRES   REMARKS
WALHALLA       FAIR      48  34  57 NW16      29.86R
GRAFTON AIRPOR FAIR      48  32  53 N17G28    29.82R
VALLEY CITY AR FAIR      48  37  66 SW16      29.78R
CANDO          FAIR      46  30  53 N14G20    29.90R
CAVALIER APRT    N/A     48  32  53 N13G18    29.83R
GWINNER          N/A     48  36  61 SW18      29.79F
SHEYENNE NWR     N/A     47  37  67 S7        29.95S
ROLLA          FAIR      43  27  52 N13       29.91R
 ***** THE ABOVE OBSERVATIONS ARE NON NWS ARE NOT QUALITY
       CONTROLLED AND MAY MIS-REPORT RAIN FOR SNOW...
$$

  *****  WEATHER ACROSS NORTHERN MINNESOTA  *****

CITY           SKY/WX    TMP DP  RH WIND       PRES   REMARKS
FLAG ISLAND    CLOUDY    46  32  57 SW9       29.72S
WARROAD        FAIR      52  37  58 SW9       29.76R
ROSEAU         FAIR      52  39  62 W7        29.76S
HALLOCK        FAIR      48  27  43 N14G22    29.81R
THF RVR FALLS  FAIR      48  35  60 S15       29.75F
BAUDETTE       FAIR      47  33  58 S8        29.75F
WASKISH        FAIR      48  30  49 S10       29.77F
CROOKSTON      FAIR      48  37  66 NW20G26   29.80R
STEPHEN NDAWN    N/A     48  34  57 N20         N/A
GREENBUSH NDAW   N/A     45  36  70 NW7         N/A
$$
  *****  WEATHER ACROSS CENTRAL AND WEST MINNESOTA  *****

CITY           SKY/WX    TMP DP  RH WIND       PRES   REMARKS
FOSSTON        FAIR      46  32  57 S16       29.78F
BEMIDJI        FAIR      46  30  53 S9        29.80F
PARK RAPIDS    FAIR      45  31  58 S10       29.83F
ELBOW LAKE     FAIR      43  35  75 S12       29.86F
WADENA         FAIR      45  32  61 S8        29.84F
DETROIT LAKES  FAIR      48  32  53 S9        29.82F
MOORHEAD       FAIR      50  36  57 S17       29.80F
FERGUS FALLS   FAIR      46  34  61 S13       29.82F
MORRIS MN      FAIR      41  37  87 SE9       29.88F
STAPLES        FAIR      41  30  65 S7        29.86F
$$
  *****  WEATHER ELSEWHERE ACROSS MINNESOTA  *****

CITY           SKY/WX    TMP DP  RH WIND       PRES   REMARKS
DULUTH         FAIR      45  20  36 SW8       29.88F
INTRNTL FALLS  FAIR      47  28  47 S8        29.78F
ELY            FAIR      45  23  42 SW6       29.85F
CLOQUET        FAIR      45  18  33 SW5       29.89F
WHEATON        FAIR      46  34  61 SE13      29.86F
BRAINERD       FAIR      46  29  51 S9        29.89F
HIBBING        FAIR      41  23  48 S3        29.86F
ALEXANDRIA     FAIR      47  33  58 S10       29.90F
SAINT CLOUD    FAIR      42  33  70 S5        29.93F
MINNEAPOLIS    CLOUDY    50  33  52 SW5       29.95F
$$

  *****  WEATHER ACROSS SOUTH DAKOTA  *****

CITY           SKY/WX    TMP DP  RH WIND       PRES   REMARKS
SIOUX FALLS    MOCLDY    49  30  48 SW5       29.94F
BROOKINGS      FAIR      46  33  60 S9        29.92F
WATERTOWN      FAIR      41  34  76 S7        29.89F
HURON          FAIR      48  36  63 S10       29.88F
SISSETON         N/A     47  36  65 SE7       29.83F
ABERDEEN       FAIR      47  37  68 S13       29.83F
MITCHELL       FAIR      50  36  58 S10       29.91F
PIERRE         FAIR      51  32  48 S6        29.83F
MOBRIDGE       FAIR      50  34  54 SE5       29.81S
RAPID CITY     FAIR      56  32  40 N18G28    29.95R
$$

  *****  SOME WEATHER IN NEARBY STATES *****

CITY           SKY/WX    TMP DP  RH WIND       PRES   REMARKS
GLASGOW MT     FAIR      46  30  53 NW8       30.10R
GREAT FALLS MT FAIR      38  31  76 S9        30.23S
CHEYENNE WY    FAIR      42  26  53 W10       30.03F
SCOTTSBLUFF NE FAIR      50  31  48 VRB3      29.90F
OMAHA NE       FAIR      49  34  56 CALM      29.99F
DES MOINES IA  FAIR      52  31  44 CALM      29.99F
DAVENPORT IA   FAIR      47  28  47 NE5       29.99F
CHICAGO IL     FAIR      39  29  67 N3        29.99F
EAU CLAIRE WI  FAIR      40  27  59 CALM      29.94F
LA CROSSE WI   FAIR      44  31  60 CALM      29.97F
$$

  *****  SOME NATIONAL WEATHER *****

CITY           SKY/WX    TMP DP  RH WIND       PRES   REMARKS
LA GUARDIA NY  LGT RAIN  55  53  93 CALM      29.62F VSB 3/4
RALEIGH NC     FAIR      51  51 100 CALM      29.81F
ATLANTA GA     FAIR      55  51  86 NW6       29.92S
NEW ORLEANS LA FAIR      69  63  81 SW7       29.92F
OKLAHOMA CITY  FAIR      47  41  80 N8        30.08F
ALBUQUERQUE NM FAIR      59  28  30 SE7       30.10F
SALT LAKE CITY FAIR      57  36  45 CALM      30.10R
LOS ANGELES CA CLOUDY    57  53  86 W12       30.05R
BOISE ID       FAIR      58  35  42 W6        30.09S
SEATTLE WA     FAIR      60  43  53 N8        30.06R
$$

*** WEATHER ACROSS MANITOBA...SASKATCHEWAN AND ONTARIO ***
                ***ONTARIO***

CITY           SKY/WX    TMP DP  RH WIND       PRES   REMARKS
GERALDTON      CLOUDY    37  23  56 SW7       29.79F
THUNDER BAY    MOCLDY    30  27  86 VRB2      29.86F
SIOUX LOOKOUT  MOCLDY    46  30  53 SW7       29.71F
TORONTO        LGT RAIN  39  36  87 NW13      29.79S
BIG TROUT LK   LGT RAIN  34  30  86 N10G20    29.75R
PICKLE LAKE    NOT AVBL
DRYDEN         CLOUDY    46  30  53 S13       29.72F
KENORA         CLOUDY    48  32  53 SW9       29.73R
$$
                *** MANITOBA***

CITY           SKY/WX    TMP DP  RH WIND       PRES   REMARKS
BRANDON        CLEAR     36  28  75 N9        29.94R
DAUPHIN        CLEAR     41  28  60 N12G17    29.98R
ISLAND LAKE    FLURRIES  28  25  86 N18G25    29.93  WCI  16
PILOT MOUND      N/A     45  25  45 N15         N/A
THE PAS        CLEAR     34  27  75 N5        30.02R
THOMPSON       MOCLDY    28  19  69 NE7       30.03R WCI  21
WINNIPEG       MOCLDY    48  32  53 N14       29.86R
LYNN LAKE      CLEAR     25  21  86 E3        30.01F
CHURCHILL      PTCLDY     9   7  92 N10       30.10S WCI  -6
GILLAM         FLURRIES  16   9  73 NE13      30.05S WCI   2
$$
                ***SASKATCHEWAN***

CITY           SKY/WX    TMP DP  RH WIND       PRES   REMARKS
ESTEVAN        CLEAR     41  28  60 NW9       30.02R
KINDERSLEY     CLEAR     41  28  60 SW8       30.11S
LLOYDMINSTER   CLEAR     39  27  60 W9        30.05S
PRINCE ALBERT  CLEAR     36  27  69 W2        30.05S
REGINA         CLEAR     37  25  60 NW7       30.06R
YORKTON        CLEAR     37  27  65 W9        30.01R
N. BATTLEFORD  CLEAR     36  19  51 CALM      30.08S
LA RONGE       PTCLDY    36  27  69 S2        30.01S
SASKATOON      CLEAR     39  30  70 W3        30.08S
SWIFT CURRENT  CLEAR     43  25  49 NW6       30.11R
$$
NOTE: THESE ARE AUTOMATED STATIONS WITH LIMITED QUALITY CONTROL
      "FAIR" INDICATES FEW OR NO CLOUDS BELOW 12,000 FEET WITH NO
      SIGNIFICANT WEATHER AND/OR OBSTRUCTIONS TO VISIBILITY.
      SKY/WX - SKY CONDITION AND SIGNIFICANT WEATHER.
      TMP - AIR TEMPERATURE.    DP   - DEWPOINT TEMPERATURE.
      RH  - RELATIVE HUMIDITY.  PRES - PRESSURE.
      HX  - HEAT INDEX.         WCI  - WIND CHILL INDEX.
$




USA.gov is the U.S. government's official web portal to all federal, state and local government web resources and services.